TimeCDT,TemperatureF,Dew PointF,Humidity,Sea Level PressureIn,VisibilityMPH,Wind Direction,Wind SpeedMPH,Gust SpeedMPH,PrecipitationIn,Events,Conditions,WindDirDegrees,DateUTC
12:53 AM,78.1,54.0,43,29.97,10.0,SSE,10.4,-,N/A,,Clear,160,2013-08-30 05:53:00
1:53 AM,75.0,54.0,48,29.97,10.0,South,9.2,-,N/A,,Clear,170,2013-08-30 06:53:00
2:53 AM,73.9,54.0,50,29.97,10.0,South,9.2,-,N/A,,Clear,180,2013-08-30 07:53:00
3:53 AM,73.0,55.0,53,29.96,10.0,South,9.2,-,N/A,,Clear,190,2013-08-30 08:53:00
4:53 AM,72.0,55.0,55,29.95,10.0,South,8.1,-,N/A,,Clear,180,2013-08-30 09:53:00
5:53 AM,69.1,55.0,61,29.96,10.0,South,6.9,-,N/A,,Clear,180,2013-08-30 10:53:00
6:53 AM,70.0,55.9,61,29.96,10.0,SSW,6.9,-,N/A,,Clear,200,2013-08-30 11:53:00
7:53 AM,70.0,55.9,61,29.98,10.0,SSE,6.9,-,N/A,,Clear,160,2013-08-30 12:53:00
8:53 AM,73.9,55.9,53,29.99,10.0,SSE,8.1,-,N/A,,Clear,150,2013-08-30 13:53:00
9:53 AM,81.0,57.9,45,29.99,10.0,SSE,6.9,-,N/A,,Clear,150,2013-08-30 14:53:00
10:53 AM,84.0,57.0,40,29.99,10.0,SE,10.4,-,N/A,,Clear,140,2013-08-30 15:53:00
11:53 AM,88.0,55.0,32,29.98,10.0,SE,9.2,20.7,N/A,,Clear,140,2013-08-30 16:53:00
12:53 PM,91.0,53.1,27,29.95,10.0,SE,9.2,17.3,N/A,,Clear,130,2013-08-30 17:53:00
1:53 PM,93.0,54.0,27,29.93,10.0,ESE,13.8,17.3,N/A,,Clear,120,2013-08-30 18:53:00
2:53 PM,93.9,51.1,23,29.91,10.0,Variable,3.5,20.7,N/A,,Clear,0,2013-08-30 19:53:00
3:53 PM,96.1,50.0,21,29.88,10.0,SE,15.0,19.6,N/A,,Clear,140,2013-08-30 20:53:00
4:53 PM,96.1,48.9,20,29.86,10.0,SE,11.5,21.9,N/A,,Clear,140,2013-08-30 21:53:00
5:53 PM,93.9,48.9,21,29.85,10.0,East,12.7,23.0,N/A,,Clear,80,2013-08-30 22:53:00
6:53 PM,93.0,48.0,21,29.85,10.0,SE,10.4,-,N/A,,Clear,140,2013-08-30 23:53:00
7:53 PM,91.0,50.0,24,29.85,10.0,SE,12.7,-,N/A,,Clear,130,2013-08-31 00:53:00
8:53 PM,88.0,51.1,28,29.86,10.0,SE,10.4,-,N/A,,Clear,130,2013-08-31 01:53:00
9:53 PM,84.9,53.1,33,29.87,10.0,SE,11.5,-,N/A,,Clear,130,2013-08-31 02:53:00
10:53 PM,82.9,53.1,36,29.88,10.0,SE,10.4,-,N/A,,Clear,140,2013-08-31 03:53:00
11:53 PM,81.0,54.0,39,29.88,10.0,SSE,12.7,-,N/A,,Clear,150,2013-08-31 04:53:00